Regional Weather Roundup
Issued by NWS

Home | Current Version | Previous Version | Graphics & Text | Print | Product List | Glossary On
Versions: 1 2 3 4 5 6 7 8 9 10 11 12 13 14 15 16 17 18 19 20 21 22 23 24 25 26 27 28 29 30 31 32 33 34 35 36 37 38 39 40 41 42 43 44 45 46 47 48 49 50
000
ASUS43 KDMX 042301
RWRIA

WEATHER ROUNDUP FOR IOWA
NATIONAL WEATHER SERVICE DES MOINES IA
500 PM CST SUN DEC 04 2016

NOTE: "FAIR" INDICATES FEW OR NO CLOUDS BELOW 12,000 FEET WITH NO
SIGNIFICANT WEATHER AND/OR OBSTRUCTIONS TO VISIBILITY.

* - THESE STATIONS ARE NOT NWS STATIONS...THUS NOT UNDER NWS
QUALITY CONTROL.  THEY ALSO DO NOT REPORT WEATHER SUCH
AS PRECIPITATION OR FOG.

IAZ001>003-012>014-020>022-031>034-043>046-050000-
   NORTHWEST IOWA

CITY           SKY/WX    TMP DP  RH WIND       PRES   REMARKS
CARROLL *      CLEAR     36  36 100 SW8       29.87R WCI  29
CHEROKEE *     CLEAR     38  36  91 SW7       29.84S WCI  33
DENISON *      CLEAR     37  34  87 SW5       29.85S WCI  34
LE MARS *      CLEAR     43  32  65 SW5       29.84S
ORANGE CITY *  CLEAR     37  34  87 CALM      29.83R
SHELDON *      CLEAR     37  34  87 SW8       29.81S WCI  31
SIOUX CITY     CLEAR     44  31  60 W5        29.85R
SPENCER        CLEAR     35  31  85 SW8       29.82S WCI  29
STORM LAKE *   CLEAR     37  34  87 SW8       29.84R WCI  31
$$

IAZ055>058-069>071-079>083-090>094-050000-
   SOUTHWEST IOWA

CITY           SKY/WX    TMP DP  RH WIND       PRES   REMARKS
ATLANTIC *     CLEAR     37  34  87 S5        29.90S WCI  34
AUDUBON *      CLEAR     34  30  86 S5        29.89R FOG     WCI  30
CLARINDA *       N/A     37  36  93 S6        29.95S WCI  33
COUNCIL BLFS * CLEAR     37  34  87 SW9       29.90R WCI  31
CRESTON *      PTCLDY    36  34  93 SW8       29.91S WCI  29
HARLAN  *      CLEAR     36  36 100 S9        29.92R WCI  29
LAMONI         CLOUDY    37  34  89 SW6       29.93R WCI  32
RED OAK *      CLEAR     37  34  87 SW7       29.92S WCI  32
SHENANDOAH *   CLEAR     39  36  87 SW8       29.94R WCI  34
$$

IAZ047>049-059>061-072>074-084-050000-
   CENTRAL IOWA

CITY           SKY/WX    TMP DP  RH WIND       PRES   REMARKS
AMES           CLOUDY    34  33  96 SW9       29.88F WCI  27
ANKENY *       MOCLDY    36 N/A N/A SW6       29.91S WCI  31
BOONE *        CLOUDY    34  32  93 SW9       29.86S FOG     WCI  26
CHARITON *       N/A     37  34  87 W9        29.92R WCI  31
DES MOINES     PTCLDY    36  33  89 W8        29.90F FOG     WCI  30
GRINNELL*      CLOUDY    33  32  94 W9        29.90R WCI  26
KNOXVILLE *    CLOUDY    37  34  87 W12       29.90S WCI  30
MARSHALLTOWN   CLOUDY    33  31  92 W12       29.88S WCI  24
NEWTON *       CLOUDY    34  32  93 W10       29.90R FOG     WCI  26
PELLA *        CLOUDY    37  34  87 W6        29.92R WCI  33
PERRY *          N/A     34  34  98 S6        29.89S FOG     WCI  29
$$

IAZ004>006-015-016-023>025-035-036-050000-
   NORTH CENTRAL IOWA

CITY           SKY/WX    TMP DP  RH WIND       PRES   REMARKS
ALGONA *       MOCLDY    37  36  93 S12       29.83R WCI  30
CLARION *      CLOUDY    34  34 100 SW8       29.85S FOG     WCI  27
ESTHERVILLE    CLEAR     37  33  85 W9        29.81R WCI  30
FORT DODGE *   CLEAR     34  30  86 SW6       29.86R WCI  29
MASON CITY     CLOUDY    34  31  88 SW9       29.85S WCI  27
WEBSTER CITY * MOCLDY    34  34 100 SW8       29.84R WCI  27
IOWA FALLS *   CLOUDY    34  32  93 SW10      29.87S WCI  26
$$

IAZ007>011-017>019-026>030-037>042-050>054-066-050000-
   NORTHEAST IOWA

CITY           SKY/WX    TMP DP  RH WIND       PRES   REMARKS
CEDAR RAPIDS   CLOUDY    32  32 100 SW7       29.89S FOG     WCI  26
CHARLES CITY * CLOUDY    34  32  93 SW8       29.85F WCI  27
CLINTON *      LGT SNOW  31  30  96 S5        29.92S FOG     WCI  26
DECORAH *      CLOUDY    34  32  93 VRB6      29.84R WCI  29
DUBUQUE        CLOUDY    31  30  96 S10       29.88R FOG     WCI  22
MONTICELLO *   CLOUDY    32  32 100 S7        29.89F WCI  26
OELWEIN *      CLOUDY    34  32  93 SW9       29.87S WCI  26
WATERLOO       CLOUDY    33  30  88 W8        29.87S WCI  26
$$

IAZ064-065-067-068-078-050000-
   EAST CENTRAL IOWA

CITY           SKY/WX    TMP DP  RH WIND       PRES   REMARKS
DAVENPORT      CLOUDY    32  31  96 SW6       29.91S FOG     WCI  26
IOWA CITY      CLOUDY    34  32  92 SW6       29.93S WCI  29
MUSCATINE *    CLOUDY    34  32  93 SW6       29.93S FOG     WCI  29
QUAD CITIES    CLOUDY    34  31  88 CALM      29.91F FOG
$$

IAZ062-063-075>077-085>089-095>099-050000-
   SOUTHEAST IOWA

CITY           SKY/WX    TMP DP  RH WIND       PRES   REMARKS
BURLINGTON     CLOUDY    32  32 100 SW7       29.93S FOG     WCI  26
FAIRFIELD *    CLOUDY    34  32  93 W5        29.91F WCI  30
FORT MADISON * CLOUDY    34  34 100 CALM      29.93S FOG
KEOKUK *       CLOUDY    34  34 100 W5        29.93S FOG     WCI  30
OSKALOOSA *    CLOUDY    33  33  96 W6        29.92R WCI  28
CENTERVILLE *  CLOUDY    36  32  87 SW7       29.94R WCI  30
OTTUMWA        CLOUDY    35  32  88 SW6       29.92R WCI  30
WASHINGTON *   CLOUDY    34  34 100 SW7       29.92F WCI  28
$$

ABBREVIATIONS USED IN REMARKS
   TC - TEMPERATURES IN CELSIUS
  WCI - WIND CHILL INDEX
   HX - HEAT INDEX
  VSB - VISIBILITY
$$





USA.gov is the U.S. government's official web portal to all federal, state and local government web resources and services.